Location: Unspecified
(0.0000°N, 0.0000°E)
Time: 08:14:51
(UTC+00:00)

GALILEO 7 (263) - Visible Passes

Search period start: 26 November 2022 00:00
Search period end: 06 December 2022 00:00
Orbit: 23207 x 23236 km, 56.8° (Epoch: 25 November)

Date Brightness Start Highest point End Pass type
(mag) Time Alt. Az. Time Alt. Az. Time Alt. Az.
27 Nov ? 06:03:34 10° NNW 09:28:12 75° W 18:05:11 10° NE visible
28 Nov ? 16:53:03 10° SSW 20:41:14 88° W 00:36:43 10° NNE daylight
29 Nov ? 23:33:37 10° WSW 00:36:01 13° W 11:23:46 10° SSE visible
01 Dec ? 09:56:56 10° NW 19:07:40 65° E 22:17:24 10° NNE visible
02 Dec ? 20:42:26 10° SW 23:06:50 37° W 09:11:47 10° SSE visible
04 Dec ? 07:34:42 10° NNW 17:34:58 39° E 20:04:43 10° NE visible
